{"data":{"norad_id":46818,"intl_designator":"2020-077F","name":"CE-SAT IIB","alt_names":[],"object_type":"PAYLOAD","status":"ACTIVE","operator":null,"country":"JPN","launch_date":"2020-10-28","launch_site_code":"RLLB","launch_vehicle":null,"mission":null,"orbit_class":"UNKNOWN","rcs_meters":null,"size_class":null,"mass_kg":null,"dimensions":null,"purposes":[],"wikipedia_slug":null,"has_3d_model":false,"image_url":null,"decayed_at":null,"tle_current":{"epoch":"2026-07-13T10:09:06.189984Z","epoch_age_seconds":6042009,"freshness":"OLD","line1":"1 46818U 20077F   26194.42298831  .03477743  23961-5  47012-3 0  9990","line2":"2 46818  97.1784 279.7588 0007488 245.0971 114.9548 16.35354727319510","mean_motion":16.35354727,"eccentricity":0.0007488,"inclination_deg":97.1784,"raan_deg":279.7588,"arg_perigee_deg":245.0971,"mean_anomaly_deg":114.9548,"bstar":0.00047012,"rev_number":31951,"period_min":88.054290376598,"perigee_km":173.27943802201,"apogee_km":183.09819156224,"semimajor_km":6556.3258147921,"source":"CELESTRAK","updated_at":"2026-07-15T09:00:25.861755Z"}}}